Weather in Belorechenskiy

Russia / Irkutsk Oblast     52°48′49″N   103°31′34″E
temp.,
°C
wind,
m/s
gust,
m/s
humid.,
%
clouds,
%
prec.,
mm/h
press.,
hPa
HPBL,
m
28 january, thu
thu2823:00−28ese3995100 0.0 1034218
02:00−26se41090100 0.0 1030285
05:00−24se3889100 0.0 1026280
08:00−22se3598100 0.3 1024216
11:00−19ese2497100 0.8 1021185
14:00−14e1190100 1.2 1019232
17:00−14nne1197100 0.1 101875
20:00−15sw2296100 0.8 102067
29 january, fri
fri2923:00−17nnw51185100 0.3 10231092
02:00−24nnw41392100 0.4 1027865
05:00−27nw41294100 0.2 1031707
08:00−31nnw3790100 0.3 1034394
11:00−31nne128799 0.1 1034203
14:00−27ese2290100 0.1 1030284
17:00−26ese3696100 0.2 1026309
20:00−27ese3898100 0.6 1024265
30 january, sat
sat3023:00−25ne2498100 0.9 1023246
02:00−26wsw1197100 1.2 102419
05:00−25ese3599100 0.2 1023146
08:00−23e1199100 0.9 102466
11:00−20se1297100 0.4 1023156
14:00−16ese2393100 0.6 1020222
17:00−14ese2395100 0.3 1019225
20:00−16ne2397100 0.9 102186
31 january, sun
sun3123:00−16nnw41194100 0.9 1024875
02:00−21nw81582100 1.1 10301057
05:00−26nw71387100 0.0 1037939
08:00−28nw61288100 0.1 1043783
11:00−29nw6138692 0.0 1046646
14:00−27nw5108675 0.0 1046622
17:00−28nw259162 0.0 1047260
20:00−34nnw119531 0.0 104919
1 february, mon
mon123:00−34ese11950 0.0 104819
02:00−35ese22960 0.0 104523
05:00−34ese229652 0.0 104130
08:00−31ese129376 0.0 103761
11:00−27ese1287100 0.0 1033207
14:00−22ese1184100 0.0 1029280
17:00−22nnw0085100 0.0 1028241
20:00−24wnw0091100 0.0 103020